Wind_Speed
56 58 57 53 51 49 49 50 49 48 48 50 50 49 46 47 47 45 44 43 42 41 40 40 39 38 37 36 36 35 36 35 36 36 36 36 36 37 37 38 38 38 39 38
57 57 52 50 51 51 51 51 50 49 48 50 50 50 48 47 47 45 44 43 43 42 42 42 41 40 39 38 38 38 38 38 38 38 38 38 38 38 38 39 39 40 40 39
55 50 49 51 52 52 51 50 48 48 47 49 51 51 49 47 46 45 44 43 43 42 42 42 42 42 41 40 40 40 40 40 40 40 40 40 40 39 39 39 40 41 40 40
53 50 50 52 52 51 50 47 47 47 47 48 50 52 48 46 45 44 43 43 42 41 41 42 42 42 42 42 42 42 41 41 41 41 41 40 41 40 40 41 41 41 41 40
54 52 52 52 50 49 48 45 46 46 47 48 49 52 48 45 43 42 42 42 41 41 41 41 41 41 41 41 41 41 41 41 41 41 41 41 41 41 41 41 41 41 41 41
51 51 51 49 47 47 46 45 45 46 48 51 48 50 49 42 40 39 40 40 40 40 40 40 40 39 39 39 40 40 40 40 39 39 39 40 40 40 40 41 41 41 41 41
52 52 51 50 50 50 49 48 47 48 50 52 47 48 47 37 37 38 38 39 39 39 39 39 39 39 38 38 38 38 38 38 38 38 39 39 39 40 40 41 41 41 40 40
51 52 52 52 51 51 51 51 51 50 50 48 46 46 42 37 35 35 36 36 37 37 38 37 37 37 37 37 37 37 37 37 37 37 38 38 38 38 39 39 39 39 39 39
50 50 49 49 48 50 50 50 48 47 47 47 47 44 41 38 34 33 33 33 33 34 34 34 34 34 34 34 35 35 35 35 36 36 37 37 37 37 37 38 38 38 38 38
49 49 48 47 48 49 50 48 48 48 47 47 46 43 39 35 32 31 31 30 30 30 31 31 31 32 32 32 33 33 34 34 35 35 35 35 35 35 35 36 36 36 37 37
48 49 48 49 51 50 51 51 50 49 49 47 46 42 35 33 31 30 30 29 29 29 29 29 29 30 30 31 31 32 32 32 32 32 33 33 33 33 33 34 34 35 35 36
49 50 50 49 48 48 49 49 48 49 48 47 44 40 34 32 31 30 28 28 28 28 27 27 27 28 28 29 29 30 30 30 30 31 31 31 32 32 32 33 34 34 35 35
51 52 51 50 50 50 51 50 48 46 47 46 44 40 35 33 31 29 28 27 27 27 27 26 26 26 27 27 28 28 28 29 29 29 29 30 30 30 31 32 33 33 33 34
50 53 52 52 50 48 49 49 49 49 49 46 42 37 34 33 31 29 28 27 27 26 25 24 25 26 26 26 26 27 27 28 28 28 28 29 29 30 30 31 32 32 33 34
48 52 52 50 49 47 47 46 47 48 46 44 38 36 32 31 31 30 30 29 27 25 24 24 24 25 25 25 26 26 26 26 26 27 27 28 28 29 30 31 31 32 32 33
46 49 50 51 50 49 48 46 45 44 44 43 41 38 32 32 33 33 32 29 28 26 25 24 25 25 25 25 25 25 25 26 25 26 26 27 28 28 29 30 31 32 32 33
45 46 49 50 50 50 52 47 46 44 42 42 41 34 32 34 34 33 31 30 28 26 25 25 25 25 25 25 25 25 26 26 26 26 26 27 27 28 29 30 31 32 32 33
46 45 46 49 51 52 48 45 44 43 41 40 38 35 35 33 33 34 33 31 29 26 25 25 25 25 25 25 26 26 26 26 26 26 26 27 27 28 29 30 31 32 33 34
49 45 44 46 50 50 47 45 43 42 40 39 38 36 35 34 36 36 33 31 29 27 27 26 26 26 26 26 26 26 26 26 26 26 26 27 28 28 29 30 31 33 34 35
49 47 44 44 46 48 42 41 40 40 40 37 37 36 35 36 37 32 30 31 30 29 28 27 26 26 25 25 26 26 25 26 26 26 27 27 28 29 30 31 32 33 34 35
45 46 45 42 43 44 40 40 40 39 33 32 35 35 35 35 31 28 31 31 30 29 28 27 26 25 25 25 25 26 26 26 26 26 27 28 29 30 31 32 33 34 35 36
42 46 45 43 44 41 37 38 36 33 32 32 32 33 34 33 31 31 31 30 30 29 28 27 26 25 25 25 25 26 26 26 26 27 28 29 30 31 31 33 34 35 36 37
40 43 44 43 42 38 37 34 32 33 32 31 32 32 32 33 32 32 31 30 29 29 28 27 26 25 26 26 26 26 26 27 27 28 29 30 30 31 32 33 34 35 36 37
40 42 44 45 44 40 35 34 32 32 31 30 30 30 31 30 31 31 31 30 29 28 27 27 26 26 26 26 26 27 27 28 29 29 30 31 31 32 33 34 35 36 37 38
42 42 42 43 44 41 38 34 32 31 29 29 29 29 29 29 29 29 30 30 29 29 28 27 27 27 27 27 27 28 28 29 30 30 31 31 32 32 33 34 35 36 37 38
44 42 41 41 40 39 39 37 34 31 29 29 29 29 28 28 28 28 28 29 29 28 27 27 27 27 27 28 28 28 29 29 30 30 30 31 32 33 34 35 35 36 37 38
Wind_Direction
230 231 231 233 236 235 234 234 234 234 235 238 239 239 238 241 242 243 244 246 248 250 251 253 255 256 258 259 261 262 265 267 269 271 272 273 275 277 279 280 281 282 283 283
229 230 231 232 232 232 232 232 233 234 235 238 239 239 238 240 243 244 244 245 246 248 250 253 255 256 258 259 261 262 264 266 268 270 272 273 275 277 278 280 281 281 281 282
230 230 230 230 230 231 231 232 233 235 236 238 240 239 238 239 241 243 245 246 246 248 249 251 254 256 258 260 262 263 264 266 268 270 272 273 275 277 278 278 278 279 280 281
227 225 226 228 228 230 231 231 233 234 236 238 240 241 238 239 240 242 244 246 247 249 250 252 254 256 258 260 261 263 264 266 267 269 271 272 274 275 275 276 277 278 279 280
227 225 225 227 227 229 231 231 233 234 237 238 239 243 238 238 240 241 244 246 248 249 251 253 254 256 258 260 261 262 264 265 267 269 270 271 273 273 274 274 275 276 277 278
225 225 227 227 226 227 227 228 230 233 236 238 238 244 241 238 241 242 244 246 248 249 251 252 254 256 257 259 260 262 263 264 266 268 269 270 271 272 272 273 274 275 276 276
223 223 223 222 222 222 223 224 227 230 234 238 238 243 244 240 240 242 243 245 247 248 250 252 253 255 256 258 259 260 262 263 265 266 268 269 270 271 271 272 273 275 276 276
223 222 222 222 223 223 224 226 228 232 237 241 241 243 244 242 240 241 243 245 246 248 250 251 252 254 256 257 259 260 262 263 265 266 267 268 269 270 270 271 273 274 275 275
222 224 223 224 225 224 224 226 230 233 237 240 241 241 241 242 242 242 243 244 245 247 248 250 251 254 255 257 259 260 261 263 264 265 266 266 267 268 269 270 271 273 274 275
222 223 222 222 223 225 226 227 228 230 234 238 240 239 238 240 243 243 244 245 245 246 247 249 251 254 255 257 258 260 261 262 263 264 265 266 267 267 268 270 271 272 273 274
221 223 222 222 222 222 222 223 225 229 232 236 238 238 238 242 243 243 244 244 245 246 247 249 251 253 255 257 259 260 262 262 263 264 265 266 266 267 268 269 270 270 271 273
219 222 224 224 223 224 225 226 227 228 232 235 239 240 239 241 242 243 243 243 243 244 246 248 250 253 255 257 259 261 262 262 263 264 265 266 266 267 267 268 269 270 272 273
217 222 224 223 222 222 222 223 225 228 232 234 236 236 237 240 241 242 242 241 241 243 245 247 249 252 254 256 259 260 261 262 262 264 265 266 267 267 268 269 270 271 272 274
216 220 221 223 224 224 223 223 223 225 228 231 232 233 234 238 240 241 241 240 241 242 244 246 248 251 254 256 258 260 261 262 263 265 266 266 267 267 268 270 271 272 274 275
216 219 219 221 221 222 224 225 226 227 230 233 233 233 232 235 237 238 239 240 241 243 244 246 248 251 254 256 258 260 262 264 265 265 266 267 267 269 270 271 272 273 274 276
213 217 218 219 220 222 223 221 223 226 228 230 230 229 228 230 231 234 237 240 240 241 243 244 247 250 254 256 258 260 262 264 265 266 267 268 269 269 271 272 273 274 276 277
209 212 215 218 220 223 223 220 222 223 226 228 229 226 226 229 230 233 237 239 240 240 241 243 246 250 253 256 258 260 262 264 265 266 267 268 269 270 271 273 275 276 278 280
211 210 215 218 220 223 223 222 224 226 227 228 228 224 226 229 230 232 235 237 239 239 241 243 246 250 252 255 257 259 262 263 264 266 267 268 270 272 274 275 277 278 280 281
213 211 213 217 220 221 222 221 223 225 225 226 227 226 226 229 231 232 234 236 237 237 239 243 246 250 251 254 257 259 261 263 264 265 267 269 272 274 276 278 279 280 281 282
216 213 212 214 218 219 219 220 221 225 227 223 227 227 226 229 232 232 234 235 236 238 240 243 246 249 251 253 256 258 260 263 264 266 268 271 274 276 278 279 280 281 282 283
216 216 215 213 214 215 215 218 221 225 222 221 225 226 228 230 231 229 231 233 235 238 241 244 246 248 250 252 254 256 259 262 265 267 270 273 275 278 279 280 281 282 284 285
216 216 216 214 211 209 211 217 221 223 222 222 223 226 228 229 229 228 229 232 234 237 240 242 244 246 248 251 254 256 259 263 266 269 272 275 277 279 280 282 283 284 286 287
212 213 214 213 210 210 212 216 218 219 220 222 224 224 225 228 229 228 229 231 232 234 236 239 241 244 248 251 254 258 261 264 268 271 274 276 278 280 282 283 285 286 287 289
208 208 210 210 207 209 210 212 214 216 218 221 222 224 227 227 228 227 228 228 229 231 234 238 241 245 249 253 257 260 263 266 269 272 275 277 279 281 283 285 286 287 289 290
207 209 210 209 207 209 208 208 212 215 216 219 222 224 226 226 226 225 225 226 228 232 236 239 242 246 251 255 258 262 265 268 270 273 276 278 281 283 285 286 288 289 290 291
208 209 209 207 205 206 206 209 211 213 215 218 218 219 222 224 223 222 223 224 227 231 235 239 244 248 251 255 259 263 267 269 272 274 277 279 282 284 286 288 289 291 291 292
Height
5675 5681 5689 5701 5709 5716 5720 5724 5730 5736 5740 5743 5746 5752 5758 5761 5765 5771 5775 5778 5782 5785 5788 5789 5792 5794 5796 5798 5800 5801 5802 5803 5803 5804 5804 5804 5803 5803 5802 5801 5800 5798 5797 5795
5662 5670 5685 5692 5696 5701 5707 5712 5719 5725 5729 5732 5736 5741 5747 5752 5756 5761 5766 5770 5773 5776 5778 5781 5783 5785 5788 5790 5791 5792 5793 5794 5794 5795 5795 5795 5795 5794 5794 5792 5791 5789 5788 5787
5652 5667 5675 5678 5683 5689 5696 5704 5711 5716 5719 5721 5725 5730 5737 5743 5747 5752 5756 5760 5764 5767 5770 5772 5774 5776 5779 5781 5782 5783 5784 5785 5785 5785 5785 5785 5785 5785 5785 5783 5781 5780 5779 5778
5641 5653 5659 5665 5672 5680 5687 5697 5701 5704 5707 5710 5715 5718 5728 5733 5738 5743 5747 5751 5754 5758 5760 5763 5765 5767 5770 5771 5772 5774 5775 5775 5776 5776 5776 5776 5776 5776 5775 5774 5772 5771 5770 5769
5631 5642 5648 5654 5665 5672 5681 5687 5690 5694 5696 5700 5703 5706 5717 5724 5729 5735 5738 5741 5745 5748 5750 5753 5755 5758 5759 5761 5762 5763 5764 5765 5766 5766 5767 5766 5766 5766 5765 5764 5763 5762 5761 5759
5622 5630 5637 5648 5657 5663 5670 5674 5678 5681 5684 5687 5695 5697 5705 5716 5722 5726 5729 5732 5735 5738 5741 5743 5745 5747 5749 5751 5752 5753 5754 5755 5756 5756 5756 5756 5756 5755 5755 5754 5753 5752 5751 5750
5610 5617 5626 5635 5642 5649 5655 5662 5666 5669 5671 5677 5687 5687 5696 5709 5713 5716 5720 5722 5725 5728 5730 5733 5735 5738 5739 5741 5743 5744 5745 5745 5746 5746 5747 5746 5746 5746 5745 5744 5743 5743 5742 5741
5599 5607 5616 5624 5631 5639 5645 5651 5656 5661 5665 5672 5676 5679 5691 5699 5703 5706 5710 5712 5715 5718 5721 5723 5726 5727 5729 5731 5732 5734 5735 5736 5736 5737 5737 5737 5736 5736 5735 5735 5734 5733 5732 5731
5589 5599 5609 5616 5624 5630 5635 5640 5649 5654 5657 5661 5665 5673 5682 5687 5693 5697 5701 5703 5706 5709 5711 5714 5716 5718 5720 5721 5723 5724 5725 5726 5726 5727 5727 5727 5727 5726 5726 5725 5725 5724 5723 5722
5580 5588 5597 5606 5611 5617 5626 5633 5637 5641 5646 5650 5657 5664 5674 5680 5685 5689 5692 5695 5697 5700 5703 5705 5707 5708 5710 5712 5713 5714 5715 5716 5717 5717 5718 5718 5718 5717 5717 5716 5716 5715 5714 5713
5569 5577 5585 5591 5597 5607 5614 5620 5626 5633 5637 5643 5648 5659 5667 5672 5676 5680 5683 5686 5689 5691 5694 5696 5698 5700 5701 5703 5704 5705 5706 5707 5708 5708 5708 5708 5708 5708 5708 5708 5707 5706 5706 5705
5559 5566 5573 5582 5592 5599 5605 5611 5618 5624 5630 5635 5641 5652 5658 5663 5667 5671 5675 5678 5681 5683 5686 5688 5690 5692 5693 5694 5695 5696 5697 5698 5699 5699 5699 5700 5700 5700 5699 5699 5699 5698 5697 5696
5547 5554 5562 5569 5578 5585 5591 5599 5607 5616 5621 5625 5632 5644 5650 5654 5658 5663 5667 5670 5673 5676 5678 5680 5682 5684 5685 5686 5687 5688 5689 5689 5690 5690 5691 5691 5691 5691 5691 5691 5690 5689 5689 5688
5536 5543 5552 5560 5568 5577 5583 5591 5597 5603 5608 5616 5625 5635 5641 5645 5650 5655 5659 5662 5665 5668 5671 5673 5674 5676 5677 5678 5679 5680 5681 5681 5682 5682 5683 5683 5683 5683 5683 5682 5682 5681 5680 5679
5525 5533 5542 5551 5559 5567 5574 5582 5588 5594 5603 5610 5619 5626 5633 5638 5642 5646 5650 5653 5657 5660 5663 5665 5667 5668 5669 5670 5671 5672 5673 5673 5674 5674 5675 5675 5675 5675 5674 5674 5673 5672 5671 5670
5515 5524 5533 5541 5549 5556 5563 5571 5578 5586 5595 5602 5609 5616 5625 5629 5632 5636 5640 5645 5649 5652 5655 5657 5659 5660 5662 5663 5664 5664 5665 5666 5666 5667 5667 5667 5667 5667 5666 5665 5665 5664 5662 5661
5507 5516 5524 5532 5539 5544 5551 5563 5571 5579 5586 5594 5600 5611 5616 5619 5623 5628 5632 5636 5640 5644 5647 5649 5651 5653 5654 5655 5656 5657 5658 5658 5659 5659 5659 5659 5659 5658 5658 5657 5656 5655 5654 5652
5499 5507 5514 5523 5530 5535 5550 5560 5565 5573 5580 5587 5594 5601 5606 5611 5615 5619 5623 5627 5632 5635 5638 5641 5643 5645 5646 5647 5648 5649 5650 5651 5651 5651 5651 5651 5651 5650 5649 5648 5647 5646 5645 5643
5492 5499 5506 5514 5520 5529 5541 5551 5558 5565 5572 5580 5585 5591 5597 5601 5604 5609 5615 5619 5623 5627 5630 5632 5635 5636 5638 5639 5640 5641 5642 5643 5643 5643 5643 5643 5642 5642 5641 5640 5639 5637 5635 5633
5484 5491 5499 5506 5513 5523 5537 5545 5551 5557 5562 5572 5576 5582 5587 5590 5595 5603 5608 5611 5614 5618 5621 5624 5626 5628 5630 5631 5632 5633 5634 5635 5635 5635 5635 5635 5634 5633 5632 5631 5629 5628 5626 5624
5475 5481 5490 5498 5505 5517 5529 5535 5541 5549 5559 5565 5568 5573 5578 5582 5590 5596 5598 5601 5605 5609 5613 5615 5618 5620 5622 5623 5625 5626 5626 5627 5627 5627 5627 5627 5626 5625 5624 5622 5620 5619 5616 5614
5467 5475 5483 5491 5500 5514 5522 5527 5535 5543 5551 5554 5559 5564 5569 5575 5580 5584 5588 5593 5597 5601 5604 5607 5610 5612 5614 5615 5617 5618 5619 5619 5619 5619 5619 5618 5617 5616 5614 5613 5611 5609 5606 5604
5459 5468 5476 5485 5497 5507 5512 5520 5528 5534 5540 5545 5550 5556 5560 5566 5571 5576 5580 5585 5589 5593 5596 5599 5602 5604 5606 5608 5609 5610 5611 5611 5611 5611 5610 5609 5608 5607 5605 5603 5601 5599 5596 5594
5451 5459 5467 5477 5488 5497 5504 5512 5519 5526 5532 5537 5543 5548 5553 5558 5563 5568 5573 5577 5581 5585 5588 5591 5594 5596 5598 5600 5601 5602 5602 5603 5602 5602 5601 5600 5599 5597 5596 5594 5591 5589 5586 5583
5443 5451 5459 5469 5481 5489 5497 5505 5513 5519 5525 5530 5536 5541 5546 5550 5555 5560 5565 5569 5573 5577 5581 5584 5586 5588 5590 5592 5593 5594 5594 5594 5594 5593 5592 5591 5590 5588 5586 5584 5582 5579 5576 5573
5437 5446 5455 5465 5474 5482 5491 5498 5506 5512 5518 5523 5529 5534 5539 5543 5548 5553 5557 5562 5566 5570 5573 5576 5578 5580 5582 5583 5584 5585 5585 5585 5585 5584 5583 5582 5580 5579 5576 5574 5571 5568 5565 5562